CW8490 Weather Reports


Display with metric or nautical units.
time (UTC)temp
F
wind
direction
speed
MPH
gust
MPH
rain 1hr
in
rain 24hr
in
rain mn
in
humidity
%
barometer
mb
20260505024516 71 203 3.0 5.0 0.00 0.00 0.00 74 1002.7
20260505023516 72 203 2.0 3.0 0.00 0.00 0.00 73 1002.6
20260505022536 72 203 2.0 5.0 0.00 0.00 0.00 72 1002.5
20260505021516 73 203 4.0 7.0 0.00 0.00 0.00 71 1002.3
20260505020517 72 203 3.0 4.0 0.00 0.00 0.00 70 1002.1
20260505015516 72 0.0 1.0 0.00 0.00 0.00 69 1002.0
20260505014516 72 225 1.0 2.0 0.00 0.00 0.00 69 1001.7
20260505013516 72 0.0 0.0 0.00 0.00 0.00 68 1001.6
20260505012516 73 0.0 0.0 0.00 0.00 0.00 67 1001.5
20260505011517 74 0.0 0.0 0.00 0.00 0.00 65 1001.3
20260505010556 75 0.0 0.0 0.00 0.00 0.00 63 1001.2
20260505005517 77 0.0 0.0 0.00 0.00 0.00 61 1001.1
20260505004536 78 0.0 2.0 0.00 0.00 0.00 59 1001.0
20260505003516 78 0.0 1.0 0.00 0.00 0.00 59 1000.9
20260505002637 78 225 2.0 2.0 0.00 0.00 0.00 59 1000.8
20260505002317 78 0.0 1.0 0.00 0.00 0.00 60 1000.9
20260505001316 78 225 3.0 6.0 0.00 0.00 0.00 58 1000.9
20260505000336 79 0.0 1.0 0.00 0.00 0.00 58 1001.0
20260504235316 80 248 1.0 3.0 0.00 0.00 0.00 56 1000.9
20260504234317 81 225 2.0 4.0 0.00 0.00 0.00 55 1000.9
20260504233316 81 248 4.0 6.0 0.00 0.00 0.00 54 1000.9
20260504232316 82 225 3.0 4.0 0.00 0.00 0.00 54 1001.0
20260504231316 83 225 3.0 7.0 0.00 0.00 0.00 54 1001.2
20260504230317 82 203 6.0 11.0 0.00 0.00 0.00 54 1001.1
20260504225321 82 270 2.0 5.0 0.00 0.00 0.00 55 1001.2
20260504224322 82 315 2.0 3.0 0.00 0.00 0.00 55 1001.1
20260504223320 81 225 1.0 2.0 0.00 0.00 0.00 56 1001.1
20260504222320 81 293 3.0 5.0 0.00 0.00 0.00 55 1001.1
20260504221320 80 293 5.0 9.0 0.00 0.00 0.00 55 1001.2
20260504220345 81 293 4.0 5.0 0.00 0.00 0.00 54 1001.3
20260504215320 81 293 3.0 8.0 0.00 0.00 0.00 54 1001.3
20260504214406 81 248 2.0 2.0 0.00 0.00 0.00 52 1001.4
20260504213343 81 225 5.0 11.0 0.00 0.00 0.00 52 1001.4
20260504212320 82 225 6.0 10.0 0.00 0.00 0.00 52 1001.5
20260504211330 82 0.0 0.0 0.00 0.00 0.00 50 1001.5
20260504211215 82 0.0 0.0 0.00 0.00 0.00 50 1001.6
20260504210948 82 0.0 0.0 0.00 0.00 0.00 50 1001.6
20260504210815 82 270 5.0 7.0 0.00 0.00 0.00 50 1001.5
20260504210316 82 270 5.0 10.0 0.00 0.00 0.00 49 1001.5
20260504205316 82 225 3.0 6.0 0.00 0.00 0.00 56 1001.6
20260504204316 82 293 5.0 9.0 0.00 0.00 0.00 53 1001.6
20260504203316 82 293 4.0 5.0 0.00 0.00 0.00 52 1001.7
20260504202316 81 293 4.0 9.0 0.00 0.00 0.00 53 1001.8
20260504201316 81 293 4.0 6.0 0.00 0.00 0.00 52 1001.8
20260504200347 81 0.0 0.0 0.00 0.00 0.00 51 1001.9
20260504195716 81 270 5.0 6.0 0.00 0.00 0.00 53 1001.9
20260504194736 81 203 5.0 8.0 0.00 0.00 0.00 54 1002.0
20260504193716 81 248 6.0 10.0 0.00 0.00 0.00 52 1002.1
20260504192717 81 203 5.0 9.0 0.00 0.00 0.00 52 1002.1
20260504191716 81 293 4.0 7.0 0.00 0.00 0.00 57 1002.0
20260504190736 79 293 4.0 7.0 0.00 0.00 0.00 56 1001.9
20260504185716 79 225 3.0 8.0 0.00 0.00 0.00 55 1002.1
20260504184716 79 270 5.0 7.0 0.00 0.00 0.00 57 1002.1
20260504183716 79 270 4.0 9.0 0.00 0.00 0.00 58 1002.3
20260504182716 78 225 4.0 11.0 0.00 0.00 0.00 57 1002.4
20260504181716 77 270 5.0 9.0 0.00 0.00 0.00 58 1002.4
20260504180717 78 293 5.0 8.0 0.00 0.00 0.00 57 1002.5
20260504175756 78 0.0 0.0 0.00 0.00 0.00 58 1002.5
20260504174816 77 248 3.0 5.0 0.00 0.00 0.00 58 1002.7
20260504173816 76 225 2.0 6.0 0.00 0.00 0.00 59 1002.9
20260504172816 76 225 7.0 16.0 0.00 0.00 0.00 57 1002.9
20260504171816 76 203 6.0 15.0 0.00 0.00 0.00 56 1002.9
20260504170816 76 270 6.0 9.0 0.00 0.00 0.00 57 1002.9
20260504150217 70 270 5.0 10.0 0.00 0.00 0.00 61 1003.4
20260504140816 68 270 2.0 4.0 0.00 0.00 0.00 63 1003.6
20260504100137 65 225 4.0 7.0 0.00 0.00 0.00 61 1004.7
20260504090117 63 225 4.0 11.0 0.00 0.00 0.00 65 1004.9
20260504081717 62 225 4.0 6.0 0.00 0.00 0.00 68 1005.2
20260504080717 62 203 3.0 4.0 0.00 0.00 0.00 68 1005.4
20260504060137 61 113 1.0 2.0 0.00 0.00 0.00 77 1007.1
20260504050317 63 0 2.0 2.0 0.00 0.00 0.00 75 1007.3
20260504045408 64 0.0 0.0 0.00 0.00 0.00 73 1007.2
20260504045216 64 135 1.0 1.0 0.00 0.00 0.00 73 1007.1
20260504044216 65 0.0 0.0 0.00 0.00 0.00 71 1007.1
20260504043216 65 0.0 1.0 0.00 0.00 0.00 71 1007.0
20260504042216 65 0.0 0.0 0.00 0.00 0.00 71 1007.1
20260504041216 66 0.0 0.0 0.00 0.00 0.00 69 1007.1
20260504040236 66 0.0 1.0 0.00 0.00 0.00 69 1007.2
20260504035216 66 0.0 1.0 0.00 0.00 0.00 69 1007.5
20260504034216 65 293 4.0 5.0 0.00 0.00 0.00 73 1007.5
20260504033216 63 225 2.0 4.0 0.00 0.00 0.00 76 1007.5
20260504032216 61 0.0 0.0 0.00 0.00 0.00 77 1007.5
20260504031216 62 0.0 0.0 0.00 0.00 0.00 77 1007.5
20260504030216 63 0.0 0.0 0.00 0.00 0.00 76 1007.5